Погода в Балее

Россия / Забайкальский край     51°34′56″N   116°38′16″E
темп.,
°C
ветер,
м/с
пор.,
м/с
влажн.,
%
обл.,
%
осадки,
мм/ч
давл.,
гПа
погр.,
м
8 марта, пн
пн800:00−12ю23858 0.0 102430
03:00−12ююз338722 0.0 102340
06:00−13ююз239111 0.0 102136
09:00−11юз239256 0.0 1021103
12:00−6зюз268697 0.0 1018401
15:00−4зюз3108463 0.0 1016577
18:00−3з5148216 0.0 10151335
21:00−7зсз7156718 0.0 1019872
9 марта, вт
вт900:00−13з387917 0.0 1023185
03:00−16зюз22819 0.0 102723
06:00−18ююз22820 0.0 103020
09:00−15ююз12800 0.0 103233
12:00−7зюз24630 0.0 1030467
15:00−5юз36598 0.0 1027645
18:00−7ююз287421 0.0 1024410
21:00−13ю337927 0.0 102573
10 марта, ср
ср1000:00−10ююз21086100 0.0 1023267
03:00−10юз2293100 0.0 102123
06:00−12юз229691 0.0 102220
09:00−11юз229677 0.0 102379
12:00−5з36811 0.0 1022529
15:00−2сз586926 0.0 10231386
18:00−4сз12790 0.0 102438
21:00−9ююз22850 0.0 102821
11 марта, чт
чт1100:00−10ююз23870 0.0 102922
03:00−11ююз33840 0.0 102934
06:00−11ююз338543 0.0 102951
09:00−8ююз348468 0.0 1029126
12:00−2зюз377863 0.0 1027493
15:00−1зюз247831 0.0 1026490
18:00−3зюз12880 0.0 102649
21:00−9ю23900 0.0 102931
12 марта, пт
пт1200:00−9ю33890 0.0 103038
03:00−9ююз33880 0.0 103045
06:00−10ююз33830 0.0 103062
09:00−6ююз311740 0.0 1029325
12:000юз313670 0.0 1026629
15:00+2юз414640 0.0 1023706
18:00−1юз314640 0.0 1021487
21:00−7ююз357533 0.0 102099